EHI
0 0 0 0 0 0 0 0 0 0 0 0 1 1 4 8 11 17 25 30 30 32 35 34 29 26 29 32 37 44 47 52 58 57 53 51 49 45 39 33 29 27 30 35
0 0 0 0 0 0 0 0 0 0 0 0 1 2 5 11 18 25 32 35 36 37 39 38 33 30 31 35 41 47 53 58 62 64 63 61 55 46 35 29 26 23 24 28
0 0 0 0 0 0 0 0 0 0 0 0 1 2 4 10 20 31 39 42 44 43 42 41 39 36 36 41 48 54 58 63 68 70 71 70 60 46 35 28 23 19 17 19
0 0 0 0 0 0 0 0 0 0 0 0 0 0 1 6 15 28 36 40 43 42 40 40 42 42 42 46 55 60 62 66 69 71 71 68 58 45 35 28 21 14 11 11
0 0 0 0 0 0 0 0 0 0 0 0 0 0 1 3 10 20 27 32 35 35 35 37 39 41 44 49 56 61 62 64 68 69 67 60 47 35 28 22 15 8 5 4
0 0 0 0 0 0 0 0 0 0 0 0 0 1 3 4 8 13 16 20 25 26 26 28 30 32 36 43 49 54 55 57 60 59 54 47 35 24 19 14 9 3 1 0
0 0 0 0 0 0 0 0 0 0 0 0 0 2 5 8 8 7 7 9 14 16 16 18 19 20 22 27 34 40 42 42 42 38 33 29 24 18 13 9 4 1 0 0
0 0 0 0 0 0 0 0 0 0 0 0 0 2 6 8 8 6 4 4 6 8 8 8 8 9 10 12 17 21 24 23 21 18 15 14 12 9 7 4 1 0 0 0
0 0 0 0 0 0 0 0 0 0 0 0 0 2 4 6 6 5 4 3 3 2 2 2 2 2 2 3 4 6 7 7 7 6 6 5 3 2 1 1 0 0 0 0
0 0 0 0 0 0 0 0 0 0 0 0 0 1 2 3 5 5 3 2 1 0 0 0 0 0 0 0 0 0 0 1 1 1 1 1 1 0 0 0 0 0 0 0
0 0 0 0 0 0 0 0 0 0 0 0 0 0 0 2 4 4 2 1 0 0 0 0 0 0 0 0 0 0 0 0 0 0 0 0 0 0 0 0 0 0 0 0
0 0 0 0 0 0 0 0 0 0 0 0 0 0 1 3 4 3 1 0 0 0 0 0 0 0 0 0 0 0 0 0 0 0 0 0 0 0 0 0 0 0 0 0
0 0 0 0 0 0 0 0 0 0 0 0 0 0 2 5 5 2 0 0 0 0 0 0 0 0 0 0 0 0 0 0 0 0 0 0 0 0 0 0 0 0 0 0
0 0 0 0 0 0 0 0 0 0 0 0 0 1 2 4 4 1 0 0 0 0 0 0 0 0 0 0 0 0 0 0 0 0 0 0 0 0 0 0 0 0 0 0
0 0 0 0 0 0 0 0 0 1 1 1 2 3 3 3 2 1 0 0 0 0 0 0 0 0 0 0 0 0 0 0 0 0 0 0 0 0 0 0 0 0 0 0
0 0 0 0 0 0 0 0 1 2 2 1 3 4 3 2 2 1 0 0 0 0 0 0 0 0 0 0 0 0 0 0 0 0 0 0 0 0 0 0 0 0 0 0
0 0 0 0 0 0 0 0 0 1 1 1 1 2 1 1 2 1 0 0 0 0 0 0 0 0 0 0 0 0 0 0 0 0 0 0 0 0 0 0 0 0 0 0
0 0 0 0 0 0 0 0 0 0 0 0 0 0 0 0 0 0 0 0 0 0 0 0 0 0 0 0 0 0 0 0 0 0 0 0 0 0 0 0 0 0 0 0
0 0 0 0 0 0 0 0 0 0 0 0 0 0 0 0 0 0 0 0 0 0 0 0 0 0 0 0 0 0 0 0 0 0 0 0 0 0 0 0 0 0 0 0
0 0 0 0 0 0 0 0 0 0 0 0 0 0 0 0 0 0 0 0 0 0 0 0 0 0 0 0 0 0 0 0 0 0 0 0 0 0 0 0 0 0 0 0
0 0 0 0 0 0 0 0 0 0 0 0 0 0 0 0 0 0 0 0 0 0 0 0 0 0 0 0 0 0 0 0 0 0 0 0 0 0 0 0 0 0 0 0
0 0 0 0 0 0 0 0 0 0 0 0 0 0 0 0 0 0 0 0 0 0 0 0 0 0 0 0 0 0 0 0 0 0 0 0 0 0 0 0 0 0 0 0
0 0 0 0 0 0 0 0 0 0 0 0 0 0 0 0 0 0 0 0 0 0 0 0 0 0 0 0 0 0 0 0 0 0 0 0 0 0 0 0 0 0 0 0
0 0 0 0 0 0 0 0 0 0 0 0 0 0 0 0 0 0 0 0 0 0 0 0 0 0 0 0 0 0 0 0 0 0 0 0 0 0 0 0 0 0 0 0
0 0 0 0 0 0 0 0 0 0 0 0 0 0 0 0 0 0 0 0 0 0 0 0 0 0 0 0 0 0 0 0 0 0 0 0 0 0 0 0 0 0 0 0
0 0 0 0 0 0 0 0 0 0 0 0 0 0 0 0 0 0 0 0 0 0 0 0 0 0 0 0 0 0 0 0 0 0 0 0 0 0 0 0 0 0 0 0
Wind_Speed
7 10 10 8 10 7 3 5 5 4 4 6 7 4 5 5 3 4 4 5 5 5 5 6 8 9 11 12 13 14 14 14 11 9 9 8 7 6 5 3 3 4 5 5
9 12 7 5 7 9 9 9 7 6 4 4 7 8 8 9 9 8 6 5 5 5 5 4 5 6 9 11 11 12 13 13 13 10 8 7 6 5 4 3 2 1 2 2
12 2 4 7 9 10 10 10 6 4 5 7 9 8 8 10 10 10 10 8 8 6 5 5 3 2 5 7 9 10 11 12 12 11 8 6 5 4 4 3 3 2 2 1
10 7 7 10 10 11 10 8 7 6 9 9 10 8 8 8 10 10 10 10 9 8 8 7 5 4 1 2 5 7 8 10 10 10 10 10 7 6 4 3 4 5 5 3
7 7 10 11 10 11 8 4 7 7 8 7 9 7 10 8 8 9 10 10 10 10 10 10 9 8 6 4 1 3 5 5 7 8 8 9 7 5 5 6 7 7 6 6
9 6 8 9 9 10 8 7 7 8 9 10 7 7 8 5 7 9 9 10 10 11 11 11 11 11 10 8 6 4 5 5 5 6 7 8 8 9 10 9 8 6 5 5
8 11 10 8 9 10 11 10 9 11 11 7 5 4 8 9 10 10 10 10 10 11 11 12 12 13 12 12 9 8 8 8 7 7 7 7 8 9 10 9 8 7 6 6
5 8 9 9 10 9 12 14 9 8 10 8 8 6 9 10 11 11 11 11 11 12 12 12 12 12 12 13 12 12 12 12 11 11 11 10 10 8 8 10 9 8 7 7
3 3 5 4 7 8 10 12 8 6 4 6 8 9 9 9 11 11 12 12 12 11 11 12 12 13 13 13 14 14 15 15 15 15 15 14 13 13 13 12 11 9 9 9
5 2 4 4 7 7 7 6 6 9 8 7 9 9 8 12 11 11 11 11 11 11 11 12 12 13 13 13 14 15 16 16 16 15 14 13 15 15 14 13 14 12 11 11
5 5 4 6 4 6 7 7 7 7 7 5 8 6 5 10 12 13 12 11 11 11 11 11 11 12 13 14 15 15 16 17 16 16 15 16 15 15 14 13 13 12 11 11
2 5 2 4 3 1 3 3 6 6 6 7 1 8 6 10 13 14 13 12 12 12 11 12 12 13 13 14 14 15 15 16 16 15 16 16 15 14 14 13 12 11 11 11
3 4 4 8 7 5 2 1 2 5 4 6 5 9 8 12 13 13 14 13 12 12 12 12 12 13 13 13 14 14 14 15 15 15 15 15 14 14 14 12 11 11 11 10
5 3 4 2 4 3 3 2 1 6 6 5 2 12 11 12 12 12 13 13 12 12 12 12 12 12 12 12 13 13 14 13 14 14 14 14 13 12 12 11 11 11 10 10
3 2 5 7 7 6 7 6 5 3 5 3 6 10 11 11 11 12 13 13 13 12 12 12 12 11 12 12 12 12 12 12 12 13 13 13 12 11 11 11 10 9 9 9
1 3 5 6 7 8 10 9 7 7 6 7 11 9 9 11 11 12 12 12 13 12 13 13 12 12 11 11 11 11 11 11 11 12 12 11 11 11 10 10 9 8 8 7
1 3 3 4 4 4 5 8 7 7 7 4 5 8 11 11 11 11 11 12 12 13 12 12 11 10 10 9 10 10 10 10 10 11 10 10 10 10 9 9 8 8 7 6
1 1 2 3 5 2 6 5 6 7 8 8 11 11 11 11 10 9 10 12 13 13 12 11 11 10 9 9 9 9 10 10 10 9 9 9 9 9 8 8 7 6 5 5
3 2 2 2 2 6 6 2 2 2 6 7 11 13 13 14 13 9 9 10 12 12 11 10 10 10 10 9 9 9 9 9 9 9 9 8 8 8 7 7 6 5 4 4
3 2 2 1 1 2 6 4 2 2 5 7 10 12 12 10 6 6 9 12 12 12 10 10 10 10 10 8 8 9 9 9 8 8 8 7 7 7 6 6 4 4 3 3
0 1 2 1 1 6 6 2 3 3 5 9 8 9 8 4 8 12 12 12 12 11 11 10 10 9 9 8 8 8 8 8 8 7 7 7 6 5 4 3 3 2 3 3
3 1 2 1 1 6 5 0 2 6 8 9 9 10 12 15 16 14 13 13 12 12 11 10 9 9 8 7 8 8 8 7 7 6 6 5 3 2 2 2 2 2 3 2
3 6 4 6 7 7 5 6 6 7 10 10 11 13 16 16 15 14 13 12 11 11 10 9 10 9 8 7 7 8 7 6 5 5 4 3 2 1 1 2 2 2 2 3
5 1 4 6 8 8 7 8 7 8 9 11 13 15 16 16 15 14 12 11 11 10 9 9 9 9 8 7 7 7 6 4 4 3 2 1 1 1 1 2 3 3 4 5
5 5 4 7 9 9 7 8 9 10 11 13 13 14 15 16 15 14 12 11 10 9 8 8 8 9 8 7 7 6 5 4 3 2 1 0 0 2 1 2 5 5 7 7
5 4 3 4 9 7 10 9 11 12 13 14 14 14 14 14 14 14 12 11 10 10 9 8 9 8 8 7 6 5 4 3 2 2 1 1 0 1 1 2 4 6 5 4
Wind_Direction
198 227 224 214 225 266 269 247 216 178 155 202 179 129 72 69 109 130 132 133 143 144 143 163 175 183 184 185 187 190 194 191 189 191 194 194 193 188 186 188 188 204 212 209
209 229 235 230 224 237 236 235 218 182 157 203 143 112 79 61 64 58 72 88 102 111 109 120 162 177 186 187 187 188 194 192 192 193 194 193 185 181 172 159 138 160 201 213
241 243 197 220 212 219 224 235 224 196 174 186 165 136 107 84 73 65 62 61 66 70 82 86 105 154 185 190 192 191 193 192 194 188 185 170 164 170 166 149 123 86 73 65
244 231 215 222 218 222 219 219 238 238 228 185 209 172 129 116 89 70 61 57 55 58 62 58 56 60 75 174 189 190 189 188 187 185 186 176 178 180 159 125 108 83 68 68
230 217 220 226 222 222 238 216 230 234 240 219 207 209 130 138 104 77 63 56 53 52 55 53 47 44 39 39 91 159 162 170 176 179 180 179 179 151 123 114 105 89 73 67
256 226 235 238 229 225 234 222 220 231 226 216 203 216 129 120 108 97 76 62 55 54 55 50 45 45 42 43 55 76 100 107 117 137 160 169 153 138 134 126 119 107 91 77
220 214 217 230 218 198 216 217 202 199 208 189 169 184 98 91 97 101 91 73 60 54 52 47 43 42 41 44 51 65 80 78 87 100 105 115 122 125 125 122 116 106 94 81
234 195 195 206 224 200 206 224 233 213 196 160 170 137 109 105 101 101 94 83 70 61 54 49 46 45 45 47 52 61 69 70 71 75 79 81 87 90 90 94 97 95 89 86
296 122 141 197 228 239 198 222 250 272 217 179 139 119 123 130 118 109 98 86 75 67 61 57 52 50 50 52 54 61 69 69 68 72 75 75 77 82 83 81 79 80 81 84
304 268 142 165 200 220 258 220 214 237 214 191 160 165 155 156 138 121 105 94 85 76 68 63 59 58 58 60 63 64 68 71 71 72 74 77 77 78 80 80 79 78 77 77
286 268 157 180 211 189 200 206 230 237 263 234 176 133 110 153 138 123 110 100 93 84 77 72 70 67 68 68 68 70 72 74 74 75 78 79 79 80 81 80 81 82 81 79
287 278 152 121 90 316 251 238 234 238 218 264 234 99 83 124 122 119 113 105 98 93 87 83 80 76 73 73 73 74 76 79 80 81 82 82 82 82 82 81 81 81 80 78
312 261 199 162 164 165 155 99 267 271 250 241 232 118 108 117 116 117 116 112 107 102 95 88 83 79 77 77 78 79 79 82 85 86 85 83 83 83 83 84 84 83 82 80
284 310 330 40 71 75 106 81 268 262 248 235 186 126 137 129 124 121 117 114 109 104 99 94 89 86 85 84 83 84 83 84 86 86 85 84 84 85 87 88 86 84 83 81
288 75 79 76 82 81 70 54 38 6 342 311 110 125 136 133 127 123 121 118 113 109 104 100 96 94 91 89 88 87 87 86 88 89 88 89 90 91 91 89 88 87 86 87
23 128 123 110 109 96 69 47 46 42 41 91 108 95 105 113 114 118 122 122 118 114 110 107 105 100 96 95 96 95 92 92 94 94 95 97 97 96 95 95 94 91 88 85
114 193 213 152 152 183 78 34 42 61 44 76 99 106 119 115 115 121 123 120 117 115 113 110 107 103 102 103 104 103 101 100 97 96 98 100 100 98 98 98 95 91 87 79
86 236 251 160 198 187 86 64 66 80 60 66 95 110 113 106 98 100 115 121 121 120 118 115 114 111 109 109 108 108 106 104 103 102 101 102 102 99 98 95 90 83 75 64
5 293 274 238 151 114 133 114 9 56 85 94 112 114 113 115 102 84 94 108 114 116 115 115 117 118 117 115 116 114 110 109 107 104 101 101 102 103 100 92 84 70 56 45
89 288 270 255 226 109 97 66 351 211 127 126 131 135 142 150 127 109 110 109 110 111 115 118 119 118 115 117 121 118 114 112 107 104 103 104 100 96 90 80 69 58 38 27
103 92 44 55 89 87 59 20 239 251 111 137 139 139 142 114 101 120 121 114 114 116 118 120 119 117 121 127 126 119 116 111 109 108 108 104 99 94 84 70 51 25 11 18
348 28 71 325 82 86 47 277 19 73 111 131 131 123 111 107 113 121 122 121 122 121 122 123 122 121 125 130 129 121 116 117 116 114 112 107 98 79 76 48 22 2 345 336
22 18 33 32 58 78 66 68 81 112 122 126 124 123 123 124 126 126 125 124 124 123 124 129 128 126 128 133 131 123 122 128 128 125 117 108 93 62 24 344 342 334 341 345
118 115 116 112 107 106 101 102 105 112 120 121 125 130 131 129 129 128 127 126 126 127 131 135 134 130 128 128 124 123 128 134 135 129 123 134 144 111 62 342 350 355 3 2
124 160 139 121 128 130 120 116 117 115 118 120 126 130 132 132 133 132 130 130 129 130 131 133 131 127 126 129 130 133 137 149 143 137 141 207 84 54 39 50 29 9 43 29
162 168 182 142 157 154 138 133 131 129 128 129 130 129 132 134 134 133 131 130 131 130 131 131 130 131 132 135 136 136 141 155 178 189 193 265 320 62 20 108 119 72 53 82